Watonga, OK

8:23 PM CDT on May 26, 2017 (GMT -0500)
Watonga

Weather History for KJWG - May, 2013

Change the Weather History Date:

Wednesday, May 8, 2013

  Actual Average Record
Temperature  
Mean Temperature 72 °F -  
Max Temperature 82 °F 77 °F 98 °F (2011)
Min Temperature 61 °F 52 °F 35 °F (1984)
Cooling Degree Days 6    
Growing Degree Days 22 (Base 50)    
Moisture  
Dew Point 58 °F    
Average Humidity 71    
Maximum Humidity 99    
Minimum Humidity 54    
Precipitation  
Precipitation 0.63 in - - ()
Sea Level Pressure  
Sea Level Pressure 29.89 in    
Wind  
Wind Speed 12 mph (SE)    
Max Wind Speed 21 mph    
Max Gust Speed 29 mph    
Visibility 10 miles    
Events Rain , Thunderstorm    
Averages and records for this station are not official NWS values.
T = Trace of Precipitation, MM = Missing Value Source: NWS Daily Summary

Daily Weather History Graph

Daily Weather History Graph

Search for Another Location

Airport or City:

Trip Planner

Search our weather history database for the weather conditions in past years. The results will help you decide how hot, cold, wet, or windy it might be!

Date:

Astronomy

May. 08, 2013 Rise Set
Actual Time 6:34 AM CDT 8:26 PM CDT
Civil Twilight 6:06 AM CDT 8:54 PM CDT
Nautical Twilight 5:32 AM CDT 9:28 PM CDT
Astronomical Twilight 4:56 AM CDT 10:05 PM CDT
Moon 5:40 AM CDT (5/8) 7:27 PM CDT (5/8)
Length of Visible Light 14h 48m
Length of Day
13h 52m
Waning Crescent, 2% of the Moon is Illuminated
May 8
Waning Crescent
May 9
New
May 17
First Quarter
May 24
Full
May 31
Last Quarter

Hourly Weather History & Observations

Time (CDT) Temp. Heat Index Dew Point Humidity Pressure Visibility Wind Dir Wind Speed Gust Speed Precip Events Conditions
12:15 AM 65.8 °F - 54.7 °F 67% 29.95 in 7.0 mi SSE 13.8 mph 17.3 mph 0.10 in Rain , Thunderstorm Heavy Thunderstorms and Rain
12:35 AM 65.1 °F - 55.0 °F 70% 29.92 in 10.0 mi SSE 18.4 mph 26.5 mph 0.13 in   Scattered Clouds
12:55 AM 65.1 °F - 54.7 °F 69% 29.92 in 10.0 mi SSE 13.8 mph 24.2 mph 0.13 in   Clear
1:15 AM 64.6 °F - 54.3 °F 69% 29.91 in 10.0 mi SSE 13.8 mph 20.7 mph N/A   Clear
1:35 AM 64.6 °F - 54.0 °F 68% 29.91 in 10.0 mi SSE 12.7 mph 18.4 mph N/A   Clear
1:55 AM 64.0 °F - 53.6 °F 69% 29.90 in 10.0 mi SSE 12.7 mph 18.4 mph N/A   Clear
2:15 AM 63.3 °F - 53.6 °F 71% 29.89 in 10.0 mi SSE 10.4 mph - N/A   Clear
2:35 AM 63.1 °F - 53.6 °F 71% 29.89 in 10.0 mi South 11.5 mph - N/A   Clear
2:55 AM 64.2 °F - 53.6 °F 68% 29.88 in 10.0 mi South 11.5 mph 16.1 mph N/A   Clear
3:15 AM 64.0 °F - 53.6 °F 69% 29.88 in 10.0 mi South 10.4 mph - N/A   Clear
3:35 AM 63.5 °F - 53.6 °F 70% 29.88 in 10.0 mi South 10.4 mph - N/A   Clear
3:55 AM 63.5 °F - 53.6 °F 70% 29.87 in 10.0 mi South 12.7 mph - N/A   Clear
4:15 AM 63.9 °F - 53.6 °F 69% 29.87 in 10.0 mi South 13.8 mph 18.4 mph N/A   Clear
4:35 AM 63.9 °F - 53.6 °F 69% 29.87 in 10.0 mi South 11.5 mph 18.4 mph N/A   Clear
4:55 AM 63.9 °F - 53.6 °F 69% 29.87 in 10.0 mi South 11.5 mph - N/A   Clear
5:15 AM 63.5 °F - 53.6 °F 70% 29.87 in 10.0 mi South 11.5 mph 16.1 mph N/A   Clear
5:55 AM 62.6 °F - 53.1 °F 71% 29.86 in 10.0 mi South 13.8 mph - N/A   Clear
6:15 AM 62.6 °F - 53.2 °F 71% 29.87 in 10.0 mi South 10.4 mph - N/A   Clear
6:35 AM 62.4 °F - 52.9 °F 71% 29.87 in 10.0 mi South 10.4 mph - N/A   Clear
6:55 AM 62.6 °F - 53.1 °F 71% 29.88 in 10.0 mi South 10.4 mph - N/A   Clear
7:15 AM 63.0 °F - 53.2 °F 71% 29.89 in 10.0 mi South 11.5 mph - N/A   Clear
7:35 AM 63.5 °F - 53.4 °F 70% 29.89 in 10.0 mi South 10.4 mph 18.4 mph N/A   Clear
7:55 AM 64.0 °F - 54.0 °F 70% 29.90 in 10.0 mi South 8.1 mph - N/A   Clear
8:15 AM 63.3 °F - 55.8 °F 76% 29.92 in 10.0 mi Calm Calm - N/A   Clear
8:35 AM 65.1 °F - 54.9 °F 69% 29.94 in 10.0 mi Calm Calm - N/A   Clear
8:55 AM 66.4 °F - 56.5 °F 70% 29.94 in 10.0 mi North 6.9 mph - N/A   Clear
9:15 AM 67.5 °F - 55.8 °F 66% 29.95 in 10.0 mi NNE 10.4 mph - N/A   Clear
9:35 AM 67.3 °F - 56.8 °F 69% 29.96 in 10.0 mi NE 5.8 mph - N/A   Clear
9:55 AM 67.1 °F - 56.8 °F 70% 29.96 in 10.0 mi ENE 6.9 mph - N/A   Clear
10:15 AM 67.6 °F - 57.6 °F 70% 29.96 in 10.0 mi ENE 9.2 mph - N/A   Clear
10:35 AM 68.7 °F - 59.2 °F 72% 29.96 in 10.0 mi ENE 11.5 mph - N/A   Clear
10:55 AM 69.1 °F - 58.8 °F 70% 29.96 in 10.0 mi East 10.4 mph - N/A   Clear
11:15 AM 69.3 °F - 58.6 °F 69% 29.96 in 10.0 mi ESE 11.5 mph - N/A   Clear
11:35 AM 70.5 °F - 59.7 °F 69% 29.96 in 10.0 mi East 11.5 mph 16.1 mph N/A   Scattered Clouds
11:55 AM 70.7 °F - 59.9 °F 69% 29.95 in 10.0 mi ESE 10.4 mph - N/A   Scattered Clouds
12:15 PM 71.8 °F - 60.3 °F 67% 29.94 in 10.0 mi ESE 10.4 mph - N/A   Clear
12:35 PM 73.6 °F - 61.2 °F 65% 29.92 in 10.0 mi ESE 13.8 mph 17.3 mph N/A   Clear
12:55 PM 74.8 °F - 61.9 °F 64% 29.92 in 10.0 mi ESE 9.2 mph - N/A   Clear
1:15 PM 77.2 °F - 62.6 °F 61% 29.91 in 10.0 mi SE 8.1 mph - N/A   Clear
1:35 PM 78.8 °F - 64.2 °F 61% 29.89 in 10.0 mi SSE 12.7 mph 17.3 mph N/A   Clear
1:55 PM 80.2 °F 81.9 °F 64.2 °F 58% 29.88 in 10.0 mi South 13.8 mph 18.4 mph N/A   Clear
2:15 PM 81.7 °F 83.3 °F 64.6 °F 56% 29.88 in 10.0 mi South 12.7 mph 18.4 mph N/A   Clear
2:35 PM 81.0 °F 82.5 °F 63.7 °F 56% 29.87 in 10.0 mi South 12.7 mph - N/A   Scattered Clouds
2:55 PM 81.7 °F 83.2 °F 64.0 °F 55% 29.87 in 10.0 mi South 11.5 mph 21.9 mph N/A   Clear
3:15 PM 82.4 °F 83.9 °F 64.4 °F 54% 29.87 in 10.0 mi SSE 15.0 mph - N/A   Clear
3:35 PM 81.5 °F 83.1 °F 64.2 °F 56% 29.86 in 10.0 mi SSE 12.7 mph 20.7 mph N/A   Clear
3:55 PM 81.7 °F 83.3 °F 64.8 °F 56% 29.84 in 10.0 mi SSE 13.8 mph 18.4 mph N/A Thunderstorm Clear
4:15 PM 80.6 °F 82.3 °F 64.6 °F 58% 29.84 in 10.0 mi SE 13.8 mph 20.7 mph N/A   Scattered Clouds
4:35 PM 78.1 °F - 62.2 °F 58% 29.83 in 10.0 mi SE 13.8 mph 23.0 mph N/A   Mostly Cloudy
4:55 PM 75.7 °F - 62.6 °F 64% 29.84 in 10.0 mi SE 10.4 mph 18.4 mph N/A Thunderstorm Mostly Cloudy
5:15 PM 74.7 °F - 63.7 °F 69% 29.82 in 10.0 mi ESE 8.1 mph - N/A   Scattered Clouds
5:35 PM 74.3 °F - 63.5 °F 69% 29.83 in 10.0 mi ESE 8.1 mph - N/A Thunderstorm Clear
5:55 PM 74.5 °F - 61.9 °F 65% 29.82 in 10.0 mi SE 17.3 mph 27.6 mph N/A Rain , Thunderstorm Light Thunderstorms and Rain
6:15 PM 70.3 °F - 59.9 °F 69% 29.81 in 10.0 mi SE 12.7 mph 19.6 mph N/A Rain , Thunderstorm Light Thunderstorms and Rain
6:35 PM 66.9 °F - 60.8 °F 81% 29.82 in 10.0 mi SE 13.8 mph 28.8 mph N/A Thunderstorm Thunderstorm
6:55 PM 66.9 °F - 60.3 °F 79% 29.83 in 10.0 mi ESE 11.5 mph 19.6 mph N/A Thunderstorm Mostly Cloudy
7:15 PM 67.3 °F - 59.4 °F 76% 29.81 in 10.0 mi ESE 16.1 mph 25.3 mph N/A Thunderstorm Overcast
7:35 PM 64.6 °F - 60.3 °F 86% 29.82 in 7.0 mi SE 16.1 mph 25.3 mph 0.01 in Rain , Thunderstorm Light Thunderstorms and Rain
7:55 PM 64.4 °F - 58.5 °F 81% 29.80 in 10.0 mi SE 20.7 mph 26.5 mph 0.01 in Rain , Thunderstorm Light Thunderstorms and Rain
8:15 PM 61.5 °F - 59.0 °F 91% 29.87 in 3.0 mi ESE 10.4 mph 26.5 mph 0.23 in Rain , Thunderstorm Heavy Thunderstorms and Rain
8:35 PM 61.7 °F - 60.4 °F 96% 29.88 in 7.0 mi East 16.1 mph 20.7 mph 0.45 in Rain , Thunderstorm Heavy Thunderstorms and Rain
8:55 PM 61.7 °F - 61.5 °F 99% 29.87 in 10.0 mi East 20.7 mph - 0.49 in Thunderstorm Mostly Cloudy
9:15 PM 62.4 °F - 60.4 °F 93% 29.88 in 10.0 mi East 18.4 mph 24.2 mph N/A Thunderstorm Thunderstorm
9:35 PM 64.2 °F - 59.2 °F 84% 29.88 in 10.0 mi ESE 16.1 mph 23.0 mph N/A   Clear
9:55 PM 65.3 °F - 59.0 °F 80% 29.86 in 10.0 mi East 12.7 mph - N/A   Scattered Clouds
10:15 PM 63.7 °F - 59.0 °F 85% 29.87 in 10.0 mi ESE 15.0 mph - N/A   Scattered Clouds
10:35 PM 62.1 °F - 59.4 °F 91% 29.87 in 10.0 mi East 13.8 mph - N/A   Scattered Clouds
11:55 PM 62.6 °F - 60.8 °F 94% 29.87 in 10.0 mi SE 11.5 mph - N/A   Scattered Clouds